Flag for Turkey Weather past 2 weeks in Ankara, Turkey

Now
59 °F

Passing clouds.


Feels Like: 59 °F
Forecast: 56 / 70 °F
Wind: 5 mph from Northwest

Location: Ankara / Esenboga

Current Time: Sep 17, 2014 at 9:36:25 PM

Latest Report: Sep 17, 2014 at 8:50 PM


Visibility: N/A

Pressure: 29.92 "Hg

Humidity: 88%

Dew point: 55 °F

Location of AnkaraLocation

Historic Weather in Ankara — Graph

°F

Ankara temperature yesterday

Maximum temperature yesterday: 79 °F (at 2:20 PM)
Minimum temperature yesterday: 52 °F (at 4:50 AM)
Average temperature yesterday: 65 °F

Past Weeks' High & Low Weather Summary

 TemperatureHumidityPressure
High91 °F (Sep 3, 3:20 PM)100% (Sep 9, 7:20 AM)30.09 "Hg (Sep 9, 7:20 AM)
Low50 °F (Sep 15, 4:50 AM)14% (Sep 3, 12:50 PM)29.68 "Hg (Sep 6, 2:20 PM)
Average69 °F56%29.93 "Hg
* Reported Sep 2 8:20 PM — Sep 17 8:20 PM, Ankara, Weather by CustomWeather, © 2014

Note: Actual official high and low records may vary slightly from our data, if they occured in-between our weather recording intervals... More about our weather records

Advertising

Ankara weather history for previous 24 hours

 ConditionsComfort  
Time TempWeatherWind HumidityBarometerVisibility
8:20 PM
Sep 17
61 °FPassing clouds.2 mph77%29.92 "HgN/A
7:50 PM61 °FScattered clouds.2 mph77%29.92 "HgN/A
7:20 PM63 °FScattered clouds.3 mph73%29.89 "HgN/A
6:50 PM63 °FScattered clouds.3 mph73%29.89 "HgN/A
6:20 PM63 °FScattered clouds.2 mph73%29.89 "HgN/A
5:50 PM63 °FScattered clouds.7 mph68%29.89 "HgN/A
5:20 PM64 °FScattered clouds.9 mph68%29.89 "HgN/A
4:50 PM63 °FPartly sunny.7 mph77%29.89 "HgN/A
4:20 PM63 °FPartly sunny.6 mph77%29.89 "HgN/A
3:50 PM61 °FPartly sunny.5 mph83%29.92 "HgN/A
3:20 PM59 °FPartly sunny.7 mph82%29.92 "HgN/A
2:50 PM59 °FThunderstorms. Partly sunny.12 mph88%29.92 "HgN/A
2:20 PM57 °FThunderstorms. Partly sunny.8 mph94%29.95 "Hg4 mi
1:50 PM59 °FThunderstorms. Partly sunny.12 mph94%29.95 "HgN/A
1:20 PM61 °FThunderstorms. Partly sunny.15 mph88%29.95 "HgN/A
1:01 PM64 °FThunderstorms. Partly sunny.12 mph73%29.95 "HgN/A
12:20 PM68 °FThunderstorms. Broken clouds.9 mph53%29.92 "HgN/A
11:50 AM68 °FBroken clouds.12 mph53%29.92 "HgN/A
11:20 AM68 °FBroken clouds.9 mph53%29.92 "HgN/A
10:50 AM68 °FBroken clouds.7 mph49%29.92 "HgN/A
10:20 AM66 °FScattered clouds.12 mph52%29.92 "HgN/A
9:50 AM66 °FScattered clouds.13 mph52%29.92 "HgN/A
9:20 AM66 °FScattered clouds.10 mph56%29.92 "HgN/A
8:50 AM63 °FScattered clouds.13 mph59%29.92 "HgN/A
8:20 AM61 °FScattered clouds.13 mph68%29.92 "HgN/A
7:50 AM61 °FScattered clouds.13 mph63%29.92 "HgN/A
7:20 AM61 °FPassing clouds.13 mph68%29.92 "HgN/A
6:50 AM59 °FPassing clouds.13 mph72%29.92 "HgN/A
6:20 AM59 °FPassing clouds.12 mph72%29.92 "HgN/A
5:50 AM61 °FPassing clouds.13 mph72%29.92 "HgN/A
5:20 AM61 °FPassing clouds.10 mph72%29.92 "HgN/A
4:50 AM61 °FPassing clouds.8 mph72%29.92 "HgN/A
4:20 AM61 °FPassing clouds.7 mph72%29.92 "HgN/A
3:50 AM63 °FPassing clouds.7 mph68%29.92 "HgN/A
3:20 AM63 °FPassing clouds.7 mph64%29.92 "HgN/A
2:50 AM63 °FPassing clouds.8 mph68%29.92 "HgN/A
2:20 AM63 °FPassing clouds.10 mph68%29.92 "HgN/A
1:50 AM63 °FPassing clouds.10 mph64%29.92 "HgN/A
1:20 AM63 °FPassing clouds.13 mph64%29.92 "HgN/A
12:50 AM63 °FPassing clouds.13 mph64%29.92 "HgN/A
12:20 AM64 °FPassing clouds.9 mph60%29.92 "HgN/A
11:50 PM
Sep 16
64 °FPassing clouds.8 mph60%29.95 "HgN/A
11:20 PM64 °FPassing clouds.7 mph60%29.95 "HgN/A
10:50 PM64 °FPassing clouds.9 mph60%29.95 "HgN/A
10:20 PM64 °FPassing clouds.9 mph60%29.95 "HgN/A
9:50 PM66 °FPassing clouds.10 mph52%29.95 "HgN/A
9:20 PM66 °FPassing clouds.9 mph56%29.95 "HgN/A
Weather by CustomWeather, © 2014

See weather overviewHow to use our weather pages